TimeCDT,TemperatureF,Dew PointF,Humidity,Sea Level PressureIn,VisibilityMPH,Wind Direction,Wind SpeedMPH,Gust SpeedMPH,PrecipitationIn,Events,Conditions,WindDirDegrees,DateUTC
12:15 AM,66.2,62.6,88,29.83,10.0,South,16.1,-,N/A,,Clear,170,2012-10-25 05:15:00
12:35 AM,66.2,62.6,88,29.82,10.0,South,16.1,-,N/A,,Clear,170,2012-10-25 05:35:00
12:55 AM,66.2,62.6,88,29.82,10.0,South,18.4,-,N/A,,Clear,170,2012-10-25 05:55:00
1:15 AM,66.2,62.6,88,29.82,10.0,South,17.3,-,N/A,,Clear,170,2012-10-25 06:15:00
1:35 AM,66.2,62.4,88,29.82,10.0,SSE,18.4,21.9,N/A,,Clear,160,2012-10-25 06:35:00
1:55 AM,66.0,62.1,87,29.81,10.0,SSE,16.1,-,N/A,,Clear,160,2012-10-25 06:55:00
2:15 AM,66.2,62.6,88,29.81,10.0,SSE,16.1,21.9,N/A,,Clear,160,2012-10-25 07:15:00
2:35 AM,64.9,61.3,88,29.81,10.0,SSE,13.8,-,N/A,,Clear,160,2012-10-25 07:35:00
2:55 AM,64.4,60.8,88,29.81,10.0,SSE,12.7,-,N/A,,Clear,160,2012-10-25 07:55:00
3:15 AM,63.7,60.8,90,29.79,10.0,SSE,15.0,-,N/A,,Clear,160,2012-10-25 08:15:00
3:35 AM,63.5,60.4,90,29.79,10.0,SSE,12.7,-,N/A,,Clear,160,2012-10-25 08:35:00
3:55 AM,63.0,59.9,90,29.79,10.0,SSE,11.5,-,N/A,,Clear,160,2012-10-25 08:55:00
4:35 AM,63.0,60.1,90,29.80,10.0,SSE,12.7,-,N/A,,Clear,160,2012-10-25 09:35:00
4:55 AM,62.8,59.9,90,29.81,10.0,South,12.7,-,N/A,,Clear,170,2012-10-25 09:55:00
5:15 AM,63.0,60.1,90,29.80,10.0,SSE,13.8,-,N/A,,Mostly Cloudy,160,2012-10-25 10:15:00
5:35 AM,63.5,60.3,89,29.79,10.0,SSE,16.1,-,N/A,,Mostly Cloudy,160,2012-10-25 10:35:00
5:55 AM,63.0,59.9,90,29.79,10.0,South,15.0,-,N/A,,Scattered Clouds,170,2012-10-25 10:55:00
6:15 AM,63.0,59.9,90,29.79,10.0,SSE,16.1,-,N/A,,Clear,160,2012-10-25 11:15:00
6:35 AM,62.6,60.8,94,29.79,10.0,South,17.3,-,N/A,,Clear,170,2012-10-25 11:35:00
6:55 AM,63.0,59.9,90,29.79,10.0,South,16.1,-,N/A,,Clear,170,2012-10-25 11:55:00
7:15 AM,63.0,59.9,90,29.79,10.0,South,15.0,-,N/A,,Clear,170,2012-10-25 12:15:00
7:35 AM,63.0,60.1,90,29.79,7.0,South,16.1,-,N/A,,Clear,170,2012-10-25 12:35:00
7:55 AM,63.5,60.4,90,29.79,10.0,South,18.4,23.0,N/A,,Clear,170,2012-10-25 12:55:00
8:35 AM,64.9,61.3,88,29.78,10.0,South,19.6,24.2,N/A,,Clear,180,2012-10-25 13:35:00
8:55 AM,66.2,62.1,86,29.77,10.0,South,25.3,31.1,N/A,,Clear,180,2012-10-25 13:55:00
9:15 AM,67.1,62.6,85,29.77,10.0,South,26.5,32.2,N/A,,Scattered Clouds,180,2012-10-25 14:15:00
9:55 AM,68.7,63.3,83,29.76,10.0,South,28.8,36.8,N/A,,Scattered Clouds,180,2012-10-25 14:55:00
10:15 AM,68.9,63.3,82,29.75,10.0,South,27.6,38.0,N/A,,Scattered Clouds,180,2012-10-25 15:15:00
10:35 AM,68.0,62.6,83,29.75,10.0,South,23.0,34.5,N/A,,Overcast,180,2012-10-25 15:35:00
10:55 AM,68.9,63.0,81,29.75,10.0,South,26.5,35.7,N/A,,Overcast,180,2012-10-25 15:55:00
11:15 AM,68.9,63.0,81,29.74,10.0,South,24.2,32.2,N/A,,Overcast,180,2012-10-25 16:15:00
11:35 AM,69.3,63.5,82,29.73,10.0,South,20.7,33.4,N/A,,Overcast,190,2012-10-25 16:35:00
11:55 AM,70.5,64.4,81,29.72,10.0,South,26.5,31.1,N/A,,Overcast,180,2012-10-25 16:55:00
12:15 PM,71.6,64.8,79,29.71,10.0,South,25.3,34.5,N/A,,Mostly Cloudy,180,2012-10-25 17:15:00
12:35 PM,72.5,65.3,78,29.70,10.0,South,24.2,31.1,N/A,,Mostly Cloudy,180,2012-10-25 17:35:00
1:15 PM,72.7,65.3,78,29.69,10.0,South,24.2,29.9,N/A,,Overcast,190,2012-10-25 18:15:00
1:35 PM,73.0,65.8,78,29.69,10.0,South,18.4,27.6,N/A,,Overcast,190,2012-10-25 18:35:00
1:55 PM,73.0,65.7,78,29.69,10.0,South,19.6,26.5,N/A,,Overcast,190,2012-10-25 18:55:00
2:15 PM,73.0,65.7,78,29.68,10.0,South,20.7,26.5,N/A,,Overcast,190,2012-10-25 19:15:00
2:35 PM,73.4,66.2,78,29.68,10.0,South,24.2,27.6,N/A,,Overcast,190,2012-10-25 19:35:00
2:55 PM,73.0,65.7,78,29.68,10.0,South,21.9,25.3,N/A,,Overcast,190,2012-10-25 19:55:00
3:15 PM,73.2,65.5,77,29.67,10.0,South,23.0,32.2,N/A,,Overcast,190,2012-10-25 20:15:00
3:35 PM,73.4,65.8,77,29.67,10.0,South,21.9,29.9,N/A,,Overcast,180,2012-10-25 20:35:00
3:55 PM,73.4,65.7,77,29.67,10.0,South,21.9,27.6,N/A,,Overcast,180,2012-10-25 20:55:00
4:15 PM,64.8,60.3,85,29.71,10.0,West,24.2,31.1,N/A,,Mostly Cloudy,260,2012-10-25 21:15:00
4:35 PM,61.0,56.5,85,29.74,10.0,West,18.4,33.4,N/A,,Overcast,260,2012-10-25 21:35:00
4:55 PM,58.1,53.6,85,29.76,10.0,West,21.9,28.8,N/A,Thunderstorm,Overcast,260,2012-10-25 21:55:00
5:35 PM,53.1,49.3,87,29.79,10.0,West,19.6,27.6,N/A,,Overcast,280,2012-10-25 22:35:00
5:55 PM,51.4,48.0,88,29.81,10.0,West,26.5,35.7,N/A,Rain,Light Rain,280,2012-10-25 22:55:00
6:35 PM,47.7,44.1,87,29.85,10.0,WNW,21.9,35.7,N/A,Rain,Light Rain,290,2012-10-25 23:35:00
6:55 PM,46.4,42.8,87,29.86,7.0,WNW,23.0,32.2,N/A,,Drizzle,290,2012-10-25 23:55:00
7:35 PM,45.9,43.2,90,29.89,7.0,WNW,13.8,26.5,0.07,Rain,Rain,290,2012-10-26 00:35:00
7:55 PM,45.3,42.6,90,29.89,7.0,WNW,21.9,27.6,0.10,Rain,Light Rain,290,2012-10-26 00:55:00
8:15 PM,44.6,41.7,90,29.93,10.0,WNW,15.0,28.8,N/A,Rain,Rain,290,2012-10-26 01:15:00
8:35 PM,44.1,41.0,89,29.91,10.0,WNW,23.0,28.8,0.01,,Overcast,300,2012-10-26 01:35:00
8:55 PM,43.9,40.6,88,29.94,10.0,WNW,18.4,26.5,0.01,,Overcast,300,2012-10-26 01:55:00
9:15 PM,43.9,40.3,87,29.97,10.0,NW,20.7,27.6,N/A,,Overcast,310,2012-10-26 02:15:00
9:35 PM,43.9,39.7,85,29.96,10.0,WNW,20.7,28.8,N/A,,Overcast,300,2012-10-26 02:35:00
9:55 PM,44.1,40.1,86,29.99,10.0,WNW,15.0,-,N/A,,Overcast,300,2012-10-26 02:55:00
10:15 PM,44.2,40.1,85,30.00,10.0,WNW,19.6,28.8,N/A,,Overcast,300,2012-10-26 03:15:00
10:55 PM,44.6,39.7,83,30.03,10.0,NW,18.4,25.3,N/A,,Overcast,310,2012-10-26 03:55:00
11:15 PM,43.9,39.4,84,30.04,10.0,WNW,25.3,28.8,N/A,,Overcast,300,2012-10-26 04:15:00
11:35 PM,42.6,38.3,85,30.06,10.0,WNW,20.7,32.2,N/A,,Overcast,290,2012-10-26 04:35:00
11:55 PM,42.1,37.8,85,30.07,10.0,WNW,18.4,27.6,N/A,,Overcast,300,2012-10-26 04:55:00